Lexington Weather

Lexington, Massachusetts, USA

56°F
5/17/2024 10:46pm 
  • Lexington Conditions: Mostly cloudy
  • Temperature: 56.1°F / 13.4°CColder 1.5°F than last hour.
  • Dew Point: 50.4°FIncreased 0.4°Fsince last hour.
  • Relative Humidity: 81%Increased 5.0% since last hour.
  • Wind: Calm, 10-min avg: Calm, gust: None
  • Barometer: 29.96 in Steady
  • Visibility: 10 miles
  • Rain Today: 0.00 in
  •   

Regional Weather Roundup
for Boston, MA

        
000
ASUS41 KBOX 161310
RWRBOX

REGIONAL WEATHER ROUNDUP
NATIONAL WEATHER SERVICE BOSTON/NORTON MA
900 AM EDT THU MAY 16 2024

NOTE:  "FAIR" INDICATES FEW OR NO CLOUDS BELOW 12,000 FEET WITH NO 
SIGNIFICANT WEATHER AND/OR OBSTRUCTIONS TO VISIBILITY.

MAZALL-161400-
EASTERN MASSACHUSETTS
  
CITY           SKY/WX    TMP DP  RH WIND       PRES   REMARKS
BOSTON         CLOUDY    57  53  86 NE13      29.82R                  
BEVERLY        CLOUDY    56  53  90 NE10      29.83R                  
LAWRENCE       LGT RAIN  56  55  97 NE8       29.86R FOG              
BEDFORD        CLOUDY    56  54  93 NE9       29.82R                  
NORWOOD        LGT RAIN  58  54  86 NE9       29.81R FOG              
MARSHFIELD     LGT RAIN  54  52  94 NE9       29.80S                  
PLYMOUTH       RAIN      56  54  93 NE14G23   29.77R FOG              
TAUNTON        LGT RAIN  58  55  90 E8        29.76R FOG              
NEW BEDFORD    RAIN      59  58  96 NE9       29.74R FOG              
$$

MAZALL-161400-
CAPE COD AND THE ISLANDS
  
CITY           SKY/WX    TMP DP  RH WIND       PRES   REMARKS
FALMOUTH       CLOUDY    59  59 100 E16G29    29.75R                  
HYANNIS        RAIN      58  57  97 E12G32    29.73R FOG              
CHATHAM        CLOUDY    55  53  93 E14G22    29.77S FOG              
PROVINCETOWN   LGT RAIN  54  54 100 E13G21    29.81R FOG              
NANTUCKET      CLOUDY    55  54  96 E18G32    29.71R                  
MARTHAS VNYRD  CLOUDY    58  57  97 E15G24    29.72R                  
$$
 
MAZALL-161400-
CENTRAL AND WESTERN MASSACHUSETTS
  
CITY           SKY/WX    TMP DP  RH WIND       PRES   REMARKS
WORCESTER      RAIN      54  52  93 NE10G24   29.80S FOG              
FITCHBURG      LGT RAIN  57  54  89 VRB3      29.85S FOG              
ORANGE         LGT RAIN  57  53  86 NE10G20   29.83R                  
SPRINGFIELD    LGT RAIN  58  55  88 NE16      29.76R                  
WESTFIELD      LGT RAIN  58  56  93 N10G23    29.79R                  
NORTH ADAMS    CLOUDY    62  55  77 E13G26    29.82R                  
PITTSFIELD     CLOUDY    58  54  86 NE14G24   29.80R                  
$$
 
RIZALL-161400-
RHODE ISLAND
  
CITY           SKY/WX    TMP DP  RH WIND       PRES   REMARKS
PROVIDENCE     RAIN      57  57 100 NE15G24   29.75R FOG              
NEWPORT        CLOUDY    57  56  96 E17G29    29.72R                  
BLOCK ISLAND   CLOUDY    52  52 100 E14G23    29.68S FOG              
SMITHFIELD     RAIN      56  56 100 NE10      29.77R FOG              
WESTERLY       LGT RAIN  57  56  96 NE12G20   29.69R FOG              
$$
 
CTZALL-161400-
CONNECTICUT
  
CITY           SKY/WX    TMP DP  RH WIND       PRES   REMARKS
BRADLEY INTL   LGT RAIN  60  55  83 N16G25    29.76R                  
HARTFORD       RAIN      59  56  89 N12       29.73R FOG              
PLAINVILLE     LGT RAIN  58  58  99 N12       29.73R FOG              
BRIDGEPORT     LGT RAIN  60  57  89 N18G31    29.68R                  
DANBURY        CLOUDY    59  55  87 NE10      29.71R                  
GROTON         LGT RAIN  59  59 100 NE17G24   29.68R FOG              
NEW HAVEN      CLOUDY    62  58  86 NE14      29.68R                  
CHESTER        CLOUDY    59  59 100 NE9G18    29.70R                  
MERIDEN        LGT RAIN  59  55  87 N8G16     29.72R FOG              
WILLIMANTIC    RAIN      57  55  93 NE14G24   29.73R FOG              
OXFORD         CLOUDY    57  55  93 NE17G25   29.72R                  
$$

MEZ002-015-021-024-NHZ003-005-008-011-012-014-VTZ005-008-161400-
NORTHERN NEW ENGLAND
  
CITY           SKY/WX    TMP DP  RH WIND       PRES   REMARKS
PORTLAND ME    CLOUDY    60  55  83 NE6       29.89S                  
BANGOR ME      PTSUNNY   65  57  75 NW7       29.90R                  
CONCORD NH     LGT RAIN  59  57  93 NE3       29.87S                  
MANCHESTER NH  CLOUDY    60  55  83 NE7       29.85R                  
NASHUA NH      LGT RAIN  57  32  38 N5        29.86R                  
PORTSMOUTH NH  CLOUDY    61  55  83 NE9       29.86R                  
JAFFREY NH     CLOUDY    57  54  89 MISG      29.86R FOG              
KEENE NH       RAIN      58  55  90 NE10      29.84S                  
BURLINGTON VT  PTSUNNY   63  58  83 CALM      29.88R                  
MT. WASHINGTON FOG       39  39 100 SE29        N/A  VSB 0   WCI  28  
$$

NYZ052-076-161400-
EASTERN NEW YORK
  
CITY           SKY/WX    TMP DP  RH WIND       PRES   REMARKS
ALBANY         CLOUDY    63  58  83 NW8       29.83R                  
NEW YORK CITY  LGT RAIN  60  56  86 N16G29    29.66R                  
$$
 
ANZALL-161400-
MARINE OBSERVATIONS
  
STATION/POSITION TIME  TEMP    WIND        PRES    VSBY  WAVE
                       AIR SEA DIR/SP/G                  HT/PER
                 (UTC) (F)     (DEG/KT/KT) (MB)    (MI)  (FT/S)
BOSTON BUOY      1250   53 53   50/ 12/ 16 1009.9R         3/ 4
BUZZARDS BAY     1200   55      80/ 22/ 23 1005.8R
NANTUCKET SOUND  1240   56 54   80/ 21/ 27 1006.0R
MASS BAY-STELLWA 1104   54 53   30/ 14/ 17 1009.2R  1 7/8  2/ 4
ISLE OF SHOALS   1200   54      30/ 17/ 19 1010.1R
S OF BLOCK IS    1256      49                N/A           9/10
$$

......................KEY.........................
  SKY/WX - SKY CONDITION/PRESENT WEATHER
  TMP    - TEMPERATURE IN FAHRENHEIT
  DWPT   - DEWPOINT IN FAHRENHEIT
  RH     - RELATIVE HUMIDITY IN PERCENT
  WIND   - DIRECTION AND SPEED IN MPH
  PRES   - MEAN SEA LEVEL PRESSURE IN INCHES OF HG
  WCI    - WIND CHILL INDEX
  VSB    - VISIBILITY IN MILES
  HX     - HEAT INDEX
  TC     - TEMPERATURE IN CELSIUS
  VRB    - VARIABLE WIND DIRECTION
  N/A    - NOT AVAILABLE
  
      

Other recent Regional Weather Roundups

Fri May 17, 10:10pm EDT

Fri May 17, 9:10pm EDT

Fri May 17, 8:10pm EDT

Fri May 17, 7:10pm EDT

Fri May 17, 6:10pm EDT

Fri May 17, 5:10pm EDT

Fri May 17, 4:10pm EDT

Fri May 17, 3:10pm EDT

Fri May 17, 2:10pm EDT

Fri May 17, 1:10pm EDT

Fri May 17, 12:10pm EDT

Fri May 17, 11:10am EDT

Fri May 17, 10:10am EDT

Fri May 17, 9:10am EDT

Fri May 17, 8:10am EDT

Fri May 17, 7:10am EDT

Fri May 17, 6:10am EDT

Fri May 17, 5:10am EDT

Fri May 17, 4:10am EDT

Fri May 17, 3:10am EDT

Fri May 17, 2:10am EDT

Fri May 17, 1:10am EDT

Fri May 17, 12:10am EDT

Thu May 16, 11:10pm EDT

Thu May 16, 10:10pm EDT

Thu May 16, 9:10pm EDT

Thu May 16, 8:10pm EDT

Thu May 16, 7:10pm EDT

Thu May 16, 6:10pm EDT

Thu May 16, 5:10pm EDT

Thu May 16, 4:10pm EDT

Thu May 16, 3:10pm EDT

Thu May 16, 2:10pm EDT

Thu May 16, 1:10pm EDT

Thu May 16, 12:10pm EDT

Thu May 16, 11:10am EDT

Thu May 16, 10:10am EDT

Thu May 16, 8:10am EDT

Thu May 16, 7:10am EDT

Thu May 16, 6:10am EDT

Thu May 16, 5:10am EDT

Thu May 16, 4:10am EDT

Thu May 16, 3:10am EDT

Thu May 16, 2:10am EDT

Thu May 16, 1:10am EDT

Thu May 16, 12:10am EDT

Wed May 15, 11:10pm EDT

Wed May 15, 10:10pm EDT

Wed May 15, 9:10pm EDT

Wed May 15, 8:10pm EDT

Wed May 15, 7:10pm EDT

Wed May 15, 6:10pm EDT

Wed May 15, 5:10pm EDT

Wed May 15, 4:10pm EDT

Wed May 15, 3:10pm EDT

Wed May 15, 2:10pm EDT

Wed May 15, 1:10pm EDT

Wed May 15, 12:10pm EDT

Wed May 15, 11:10am EDT

Wed May 15, 10:10am EDT

Wed May 15, 9:10am EDT

Wed May 15, 8:10am EDT

Wed May 15, 7:10am EDT

Wed May 15, 6:10am EDT

Wed May 15, 5:10am EDT

Wed May 15, 4:10am EDT

Wed May 15, 3:10am EDT

Wed May 15, 2:10am EDT

Wed May 15, 1:10am EDT

Wed May 15, 12:10am EDT

Tue May 14, 11:10pm EDT

Tue May 14, 10:10pm EDT

Tue May 14, 9:10pm EDT

Tue May 14, 8:10pm EDT

Tue May 14, 7:10pm EDT

Tue May 14, 6:10pm EDT

Tue May 14, 5:10pm EDT

Tue May 14, 4:10pm EDT

Tue May 14, 3:10pm EDT

Tue May 14, 2:10pm EDT

Tue May 14, 1:10pm EDT

Tue May 14, 12:10pm EDT

Tue May 14, 11:10am EDT

Tue May 14, 10:10am EDT

Tue May 14, 9:10am EDT

Tue May 14, 8:10am EDT

Tue May 14, 7:10am EDT

Tue May 14, 6:10am EDT

Tue May 14, 5:10am EDT

Tue May 14, 4:10am EDT

Tue May 14, 3:10am EDT

Tue May 14, 2:10am EDT

Tue May 14, 1:10am EDT

Tue May 14, 12:10am EDT

Mon May 13, 11:10pm EDT

Mon May 13, 10:10pm EDT

Mon May 13, 9:10pm EDT

Mon May 13, 8:10pm EDT

Mon May 13, 7:10pm EDT

Mon May 13, 6:10pm EDT

Mon May 13, 5:10pm EDT

Mon May 13, 4:10pm EDT

Mon May 13, 3:10pm EDT

Mon May 13, 2:10pm EDT

Mon May 13, 1:10pm EDT

Mon May 13, 12:10pm EDT

Mon May 13, 11:10am EDT

Mon May 13, 10:10am EDT

Mon May 13, 9:10am EDT

Mon May 13, 8:10am EDT

Mon May 13, 7:10am EDT

Mon May 13, 6:10am EDT

Mon May 13, 5:10am EDT

Mon May 13, 4:10am EDT

Mon May 13, 3:10am EDT

Mon May 13, 2:10am EDT

Mon May 13, 1:10am EDT

Mon May 13, 12:10am EDT

Sun May 12, 11:10pm EDT

Sun May 12, 10:10pm EDT

Sun May 12, 9:10pm EDT

Sun May 12, 8:10pm EDT

Sun May 12, 7:10pm EDT

Sun May 12, 6:10pm EDT

Sun May 12, 5:10pm EDT

Sun May 12, 4:10pm EDT

Sun May 12, 3:10pm EDT

Sun May 12, 2:10pm EDT

Sun May 12, 1:10pm EDT

Sun May 12, 12:10pm EDT

Sun May 12, 11:10am EDT

Sun May 12, 10:10am EDT

Sun May 12, 9:10am EDT

Sun May 12, 8:10am EDT

Sun May 12, 7:10am EDT

Sun May 12, 6:10am EDT

Sun May 12, 5:10am EDT

Sun May 12, 4:10am EDT

Sun May 12, 3:10am EDT

Sun May 12, 2:10am EDT

Sun May 12, 1:10am EDT

Sun May 12, 12:10am EDT

Sat May 11, 11:10pm EDT

Sat May 11, 10:10pm EDT

Sat May 11, 9:10pm EDT

Sat May 11, 8:10pm EDT

Sat May 11, 7:10pm EDT

Sat May 11, 6:10pm EDT

Sat May 11, 5:10pm EDT

Sat May 11, 4:10pm EDT

Sat May 11, 3:10pm EDT

Sat May 11, 2:10pm EDT

Sat May 11, 1:10pm EDT

Sat May 11, 12:10pm EDT

Sat May 11, 11:10am EDT

Sat May 11, 10:10am EDT

Sat May 11, 9:10am EDT

Sat May 11, 8:10am EDT

Sat May 11, 7:10am EDT

Sat May 11, 6:10am EDT

Sat May 11, 5:10am EDT

Sat May 11, 4:10am EDT

Sat May 11, 3:10am EDT

Sat May 11, 2:10am EDT

Sat May 11, 1:10am EDT

Sat May 11, 12:10am EDT

Fri May 10, 11:10pm EDT